Simultaneous Nadir Overpasses (SNOs) Predictions

Prediction of SNOs near US between NOAA-19 and NPP Satellite Orbit:

Table of predicted SNOs near US for the next 10.0 days since TLE Epoch: 10/19/2012
Index Date (NOAA-19) Time (NOAA-19) NOAA-19 Lat,Lon Date (NPP) Time (NPP) NPP Lat,Lon Distance(km) Time Diff (sec)
1 10/21/2012 18:24:56 45.99, -82.04 10/21/2012 18:26:05 45.47, -84.69 214.31 69
2 10/21/2012 20:07:36 48.00,-108.39 10/21/2012 20:08:10 47.49,-110.88 194.70 34
3 10/22/2012 06:45:56 39.59, -70.66 10/22/2012 06:42:55 39.97, -72.63 173.51 181
4 10/22/2012 08:28:36 37.57, -96.84 10/22/2012 08:25:00 37.93, -98.66 165.39 216
5 10/22/2012 10:11:16 35.55,-123.00 10/22/2012 10:07:05 35.89,-124.68 156.35 251
6 10/22/2012 18:15:14 49.95, -81.01 10/22/2012 18:08:19 49.84, -81.75 54.67 415
7 10/22/2012 19:57:19
